User: anonymous   Login
Location: Unspecified
(0.0000°N, 0.0000°E)
Time: 23:16:01
(UTC+00:00)
Language:

BRO-1 - Orbit

View from above orbital plane
View from above orbital plane
View from above satellite
View from above satellite

Ground track
Ground track

The orbit is defined by the following mean orbital elements,

1 44495U          26145.20216418 +.00000000 +00000-0 +78720-3 0 00008
2 44495  44.9964  66.0326 0009284 162.1182 198.0050 15.80670729    09
Epoch (UTC): 25 May 2026 04:51:06
Eccentricity: 0.0009284
inclination: 44.9964°
perigee height: 322 km
apogee height: 335 km
right ascension of ascending node: 66.0326°
argument of perigee: 162.1182°
revolutions per day: 15.80670729
mean anomaly at epoch: 198.0050°

The dashed part of the orbit path shows where the satellite is in the earth's shadow,  

DLR